Date,TemperatureHighF,TemperatureAvgF,TemperatureLowF,DewpointHighF,DewpointAvgF,DewpointLowF,HumidityHigh,HumidityAvg,HumidityLow,PressureMaxIn,PressureMinIn,WindSpeedMaxMPH,WindSpeedAvgMPH,GustSpeedMaxMPH,PrecipitationSumIn
2013-9-1,83,75,66,71,64,59,94,73,46,29.94,29.68,17,7,29,0.02
2013-9-2,79,68,58,63,58,52,96,73,41,30.05,29.93,10,4,14,0.00
2013-9-3,84,69,54,68,60,53,97,75,48,30.06,29.96,7,3,11,0.00
2013-9-4,86,74,66,70,64,61,87,72,47,30.10,29.98,9,4,14,0.00
2013-9-5,85,75,68,70,66,64,93,74,52,30.13,30.02,13,5,15,0.06
2013-9-6,92,78,67,72,67,61,86,70,50,30.03,29.82,14,8,21,0.00
2013-9-7,88,78,71,74,70,66,89,76,55,29.84,29.76,11,6,15,0.00
2013-9-8,91,80,71,77,73,69,96,81,56,29.84,29.70,10,4,15,0.00
2013-9-9,96,84,75,72,64,55,89,54,27,29.76,29.69,16,9,26,0.00
2013-9-10,94,78,68,74,66,61,94,69,41,30.00,29.76,18,6,26,2.00
2013-9-11,83,74,68,73,69,66,97,86,65,30.05,29.96,9,4,14,0.24
2013-9-12,78,71,60,69,59,51,96,68,41,30.17,30.05,13,5,16,0.00
2013-9-13,74,64,54,59,53,50,89,69,46,30.19,30.03,6,3,10,0.00
2013-9-14,76,65,54,58,54,50,90,69,48,30.04,29.82,14,7,24,0.00
2013-9-15,69,65,62,66,59,54,96,82,67,30.20,29.80,16,8,21,0.40
2013-9-16,67,61,56,58,55,52,93,81,70,30.29,30.16,11,6,18,0.01
2013-9-17,74,64,57,69,62,56,98,94,83,30.16,29.84,12,7,19,0.35
2013-9-18,89,77,67,73,68,65,95,77,54,29.85,29.61,18,10,28,0.00
2013-9-19,80,71,59,69,63,51,94,75,60,29.95,29.64,17,8,25,0.23
2013-9-20,70,59,49,54,49,45,92,71,44,30.05,29.94,15,7,22,0.00
2013-9-21,76,61,45,56,50,43,95,70,44,30.01,29.82,10,5,14,0.00
2013-9-22,80,67,53,60,54,49,93,65,35,29.86,29.74,17,9,27,0.00
2013-9-23,76,66,54,57,53,50,89,66,45,29.79,29.67,20,12,28,0.00
2013-9-24,71,65,58,62,57,54,93,78,65,29.87,29.65,17,6,23,0.00
2013-9-25,79,66,52,63,58,52,98,78,53,29.88,29.69,13,6,21,0.00
2013-9-26,86,73,61,63,60,58,92,68,42,29.75,29.66,20,13,31,0.00
2013-9-27,87,76,70,64,61,58,75,60,40,29.77,29.68,21,13,32,0.00
2013-9-28,74,61,50,62,50,44,94,69,45,30.02,29.62,16,9,26,0.43
2013-9-29,76,61,48,51,46,42,86,60,33,30.03,29.85,13,7,20,0.00
2013-9-30,80,65,53,56,52,48,87,63,37,29.86,29.66,14,8,23,0.00